FENGYUN 1C DEB, 30573

Orbit data source: Space-Track

FENGYUN 1C DEB, 30573 is space debris in SSO originally from a launch on Mon, 10 May 1999 UTC launched from the Taiyaun Space Center, China (TSC). Fengyun 1C debris stems from the Chinese weather satellite Fengyun-1C, which was intentionally destroyed by a Chinese anti-satellite missile in 2007. This event dramatically increased the amount of space debris, with thousands of trackable fragments posing hazards to satellites and human spaceflight. The Fengyun 1C debris cloud has become a focal point in discussions about space sustainability and the need for international regulations to prevent the creation of new debris.

Loading next visibility...
Identifier
30573, 1999-025ALP
Orbit
SSO
Country
Flag of CNCN / PRC
Related business
Manufacturer
Unknown
Mission
Spacecraft
Bus & Motor
Unknown
Mass
Unknown
Launch date (UTC)
1999-05-10 (26 years ago)
Launch vehicle
Unknown
Launch site
Taiyaun Space Center, China (TSC)
Object type
Payload
Rocket body
Debris
Shape & HBR
Unknown shape, 0.1 m
Radar Cross Section
Small (<0.1 m²)

Expand to show TLE details & history
Last TLE update: 21 hours ago

TLE from 21 hours ago
0 FENGYUN 1C DEB
1 30573U 99025ALP 25310.06360264  .00003514  00000-0  18230-2 0  9990
2 30573  99.2297 346.6390 0088354  18.0865  45.6158 14.13484464956799
Epoch: 2025-11-06T01:31Z
TLE epoch observation values (Epoch: 2025-11-06T01:31:35.268Z)
Latitude
63.01552°
Longitude
-100.29325°
Altitude
813.874 km
Speed
7.475 km/s
True Right ascension
21h 52m 31s
True Declination
62° 52' 38"
Sunlit
Object was in daylight at epoch
Visualization orbit readout
Latitude
Unknown
Longitude
Unknown
Altitude
Unknown
Speed
Unknown
Apparent Right ascension
Unknown
Apparent Declination
Unknown
Sunlit
N/A
Visualization observer readout
Local Sidereal Time
19:04:01
Azimuth
Unknown
Elevation
Unknown
Doppler factor
Unknown
Orbital elements
Apogee altitude
908.481 km
Perigee altitude
780.849 km
Semi-major axis
7,222.802 km
Eccentricity
0.00884
Inclination
99.2297°
RAAN
346.639°
Arg. of periapsis
18.0865°
True anomaly
46.34498°
Mean anomaly
45.6158°
Eccentric anomaly
45.97983°
Mean motion
3.53577 °/min
Orbital period
101.82 mins
BSTAR
0.001823
Loading maneuver chart data...
Computing Atmospheric mass density...

Documentation

Showing up to 5 results
|